TimeMST,TemperatureF,Dew PointF,Humidity,Sea Level PressureIn,VisibilityMPH,Wind Direction,Wind SpeedMPH,Gust SpeedMPH,PrecipitationIn,Events,Conditions,WindDirDegrees,DateUTC
12:15 AM,32.0,12.2,44,29.91,10.0,SSW,20.7,-,N/A,,Clear,200,2013-02-17 07:15:00
12:35 AM,32.0,12.2,44,29.91,10.0,SSW,17.3,-,N/A,,Clear,210,2013-02-17 07:35:00
12:55 AM,32.0,10.4,41,29.90,10.0,SSW,17.3,-,N/A,,Clear,200,2013-02-17 07:55:00
1:15 AM,32.0,10.4,41,29.89,10.0,South,17.3,23.0,N/A,,Clear,190,2013-02-17 08:15:00
1:35 AM,32.0,10.4,41,29.89,10.0,SSW,12.7,-,N/A,,Clear,210,2013-02-17 08:35:00
1:55 AM,32.0,10.4,41,29.88,10.0,South,10.4,-,N/A,,Clear,190,2013-02-17 08:55:00
2:15 AM,32.0,10.4,41,29.87,10.0,South,9.2,-,N/A,,Clear,180,2013-02-17 09:15:00
2:35 AM,32.0,10.4,41,29.87,10.0,South,11.5,-,N/A,,Clear,170,2013-02-17 09:35:00
2:55 AM,32.0,10.4,41,29.86,10.0,South,12.7,-,N/A,,Clear,180,2013-02-17 09:55:00
3:15 AM,32.0,12.2,44,29.85,10.0,South,11.5,16.1,N/A,,Clear,180,2013-02-17 10:15:00
3:35 AM,32.0,10.4,41,29.83,10.0,SSW,12.7,21.9,N/A,,Clear,200,2013-02-17 10:35:00
3:55 AM,30.2,14.0,51,29.83,10.0,South,3.5,-,N/A,,Clear,180,2013-02-17 10:55:00
4:15 AM,32.0,12.2,44,29.83,10.0,WSW,3.5,-,N/A,,Clear,240,2013-02-17 11:15:00
4:35 AM,32.0,10.4,41,29.82,10.0,SSW,8.1,-,N/A,,Clear,200,2013-02-17 11:35:00
4:55 AM,32.0,10.4,41,29.81,10.0,South,8.1,-,N/A,,Clear,180,2013-02-17 11:55:00
5:15 AM,30.2,12.2,47,29.79,10.0,South,12.7,-,N/A,,Clear,180,2013-02-17 12:15:00
5:35 AM,30.2,12.2,47,29.78,10.0,SSE,10.4,-,N/A,,Clear,160,2013-02-17 12:35:00
5:55 AM,26.6,14.0,59,29.77,10.0,SE,9.2,-,N/A,,Clear,140,2013-02-17 12:55:00
6:15 AM,26.6,15.8,64,29.76,10.0,SE,10.4,-,N/A,,Clear,140,2013-02-17 13:15:00
6:55 AM,24.8,17.6,74,29.74,10.0,SE,10.4,16.1,N/A,,Clear,140,2013-02-17 13:55:00
7:15 AM,24.8,17.6,74,29.73,10.0,SSE,10.4,-,N/A,,Clear,160,2013-02-17 14:15:00
7:35 AM,24.8,15.8,69,29.73,10.0,SSE,13.8,18.4,N/A,,Clear,160,2013-02-17 14:35:00
7:55 AM,28.4,14.0,55,29.73,10.0,SSE,13.8,20.7,N/A,,Clear,160,2013-02-17 14:55:00
8:15 AM,28.4,14.0,55,29.73,10.0,South,15.0,-,N/A,,Clear,180,2013-02-17 15:15:00
8:35 AM,30.2,12.2,47,29.73,10.0,South,15.0,-,N/A,,Clear,190,2013-02-17 15:35:00
8:55 AM,30.2,15.8,55,29.73,10.0,SW,16.1,-,N/A,,Clear,230,2013-02-17 15:55:00
9:15 AM,32.0,17.6,55,29.72,10.0,SW,23.0,35.7,N/A,,Scattered Clouds,230,2013-02-17 16:15:00
9:35 AM,30.2,17.6,60,29.72,7.0,SW,28.8,36.8,N/A,,Clear,230,2013-02-17 16:35:00
9:55 AM,30.2,17.6,60,29.71,3.0,WSW,36.8,42.6,N/A,,Haze,240,2013-02-17 16:55:00
10:15 AM,28.4,17.6,64,29.72,5.0,WSW,38.0,42.6,N/A,,Haze,240,2013-02-17 17:15:00
10:35 AM,28.4,15.8,59,29.73,10.0,WSW,26.5,35.7,N/A,,Clear,250,2013-02-17 17:35:00
10:55 AM,23.0,19.4,86,29.73,10.0,NNW,15.0,19.6,N/A,,Clear,330,2013-02-17 17:55:00
11:15 AM,24.8,19.4,80,29.73,10.0,NNW,19.6,-,N/A,,Clear,330,2013-02-17 18:15:00
12:15 PM,26.6,23.0,86,29.73,10.0,NNW,15.0,-,N/A,,Overcast,340,2013-02-17 19:15:00
12:35 PM,26.6,23.0,86,29.72,0.5,NNW,26.5,-,N/A,Fog,Light Freezing Fog,340,2013-02-17 19:35:00
12:55 PM,24.8,23.0,93,29.73,0.2,NNW,26.5,-,N/A,Snow,Snow,340,2013-02-17 19:55:00
1:15 PM,24.8,23.0,93,29.72,-9999.0,NNW,29.9,-,N/A,,Overcast,340,2013-02-17 20:15:00
1:35 PM,24.8,23.0,93,29.73,-9999.0,NNW,26.5,-,N/A,Snow,Light Snow,340,2013-02-17 20:35:00
2:15 PM,23.0,21.2,93,29.73,0.5,North,19.6,-,N/A,Snow,Light Snow,350,2013-02-17 21:15:00
2:35 PM,23.0,21.2,93,29.73,10.0,NNW,20.7,-,N/A,,Mostly Cloudy,340,2013-02-17 21:35:00
2:55 PM,23.0,21.2,93,29.73,10.0,NNW,24.2,-,N/A,,Mostly Cloudy,340,2013-02-17 21:55:00
3:15 PM,23.0,19.4,86,29.74,10.0,NNW,28.8,-,N/A,,Mostly Cloudy,340,2013-02-17 22:15:00
3:35 PM,23.0,19.4,86,29.75,10.0,NNW,28.8,-,N/A,,Overcast,330,2013-02-17 22:35:00
3:55 PM,23.0,19.4,86,29.75,5.0,NNW,33.4,-,N/A,Snow,Light Snow,330,2013-02-17 22:55:00
4:15 PM,21.2,19.4,93,29.76,1.0,NNW,33.4,-,N/A,Snow,Light Snow,330,2013-02-17 23:15:00
4:35 PM,21.2,19.4,93,29.77,0.2,NW,34.5,-,N/A,Snow,Snow,320,2013-02-17 23:35:00
4:55 PM,21.2,19.4,93,29.78,0.2,NNW,31.1,-,N/A,Snow,Snow,330,2013-02-17 23:55:00
5:15 PM,19.4,19.4,100,29.78,0.5,NW,32.2,-,N/A,Snow,Light Snow,320,2013-02-18 00:15:00
5:35 PM,21.2,19.4,93,29.78,1.5,NNW,36.8,41.4,N/A,Snow,Light Snow,330,2013-02-18 00:35:00
6:15 PM,21.2,19.4,93,29.79,2.5,NW,39.1,-,N/A,Snow,Light Snow,320,2013-02-18 01:15:00
6:35 PM,21.2,19.4,93,29.80,2.5,NW,38.0,-,N/A,Snow,Light Snow,320,2013-02-18 01:35:00
6:55 PM,19.4,17.6,93,29.82,4.0,NNW,29.9,-,N/A,Snow,Light Snow,330,2013-02-18 01:55:00
7:15 PM,19.4,17.6,93,29.82,3.0,NNW,31.1,-,N/A,Snow,Light Snow,330,2013-02-18 02:15:00
7:35 PM,19.4,17.6,93,29.82,10.0,NNW,33.4,-,N/A,,Mostly Cloudy,330,2013-02-18 02:35:00
7:55 PM,19.4,17.6,93,29.83,10.0,NNW,32.2,-,N/A,,Scattered Clouds,330,2013-02-18 02:55:00
8:15 PM,19.4,17.6,93,29.84,10.0,NNW,29.9,-,N/A,,Scattered Clouds,330,2013-02-18 03:15:00
8:35 PM,19.4,17.6,93,29.84,3.0,NW,32.2,-,N/A,Snow,Light Snow,320,2013-02-18 03:35:00
8:55 PM,19.4,17.6,93,29.85,10.0,NW,27.6,-,N/A,,Overcast,310,2013-02-18 03:55:00
9:15 PM,17.6,17.6,100,29.87,10.0,NW,21.9,-,N/A,,Overcast,310,2013-02-18 04:15:00
9:35 PM,19.4,17.6,93,29.87,5.0,NW,21.9,-,N/A,Snow,Light Snow,320,2013-02-18 04:35:00
10:15 PM,19.4,17.6,93,29.89,1.8,NW,17.3,-,N/A,Snow,Light Snow,310,2013-02-18 05:15:00
10:35 PM,19.4,17.6,93,29.90,1.2,NNW,17.3,-,N/A,Snow,Light Snow,330,2013-02-18 05:35:00
10:55 PM,17.6,17.6,100,29.91,1.8,NNW,16.1,-,N/A,,Overcast,330,2013-02-18 05:55:00
11:15 PM,19.4,17.6,93,29.90,10.0,NW,27.6,-,N/A,,Overcast,320,2013-02-18 06:15:00
11:35 PM,19.4,17.6,93,29.91,10.0,NW,20.7,25.3,N/A,,Overcast,320,2013-02-18 06:35:00
11:55 PM,19.4,17.6,93,29.91,5.0,NW,20.7,-,N/A,,Overcast,310,2013-02-18 06:55:00